Terug naar catalogus

STARLINK-11451

ActiefCommunicatieVLEO
NORAD 62561·PAYLOAD·🇺🇸 United States

Gelanceerd Jan 10, 2025 vanaf Cape Canaveral Space Force Station

Loading…

Volgende Passages (komende 24 uur)

TLE

VersSource: CelesTrak SupGP

Epoch: Sep 15, 2026, 03:38 UTC

1 62561C 25006H   26258.15187500 -.00018993  00000+0 -14740-3 0  2581
2 62561  43.0008  77.6618 0001786 272.9040  38.9222 15.70865289    16

Volg STARLINK-11451 in realtime met AllMySat

Download on the App Store